Simultaneous Nadir Overpasses (SNOs) Predictions

Prediction of SNOs between GOES-14 and NOAA-20 Satellite Orbit:

Table of predicted SNOs for the next 14.0 days since TLE Epoch: 9/28/2024
Index Date Time (GOES-14) GOES-14 Lat,Lon NOAA-20 Lat,Lon Distance(km) Time Diff (sec)
1 09/28/2024 08:28:47 -0.06,-108.49 -0.46,-106.65 209.41 80
2 09/29/2024 20:50:45 0.06,-108.44 -0.74,-111.96 401.04 80
3 09/30/2024 20:34:42 0.06,-108.45 0.30,-107.44 115.30 80
4 10/02/2024 08:56:33 -0.06,-108.52 0.91,-112.72 480.00 80
5 10/03/2024 08:35:10 -0.06,-108.52 -0.14,-108.21 35.91 80
6 10/05/2024 20:38:25 0.07,-108.48 -0.05,-109.00 58.90 80
7 10/06/2024 20:22:22 0.07,-108.48 0.95,-104.47 457.20 80
8 10/08/2024 08:44:12 -0.07,-108.54 0.22,-109.75 138.39 80
9 10/09/2024 08:22:49 -0.07,-108.54 -0.84,-105.24 376.99 80
10 10/10/2024 20:44:47 0.08,-108.48 -0.37,-110.55 235.18 80
11 10/11/2024 20:28:43 0.08,-108.48 0.64,-106.02 280.56 80
